Weather History for Andrews, NC

Change the Weather History Date:

Monday, August 18, 2014

  Actual Average (KTYS) Record (KTYS)
Temperature  
Mean Temperature 72 °F 78 °F  
Max Temperature 80 °F 88 °F 101 °F (1988)
Min Temperature 65 °F 68 °F 57 °F (1877)
Degree Days  
Heating Degree Days 0 0  
Month to date heating degree days 0  
Since 1 June heating degree days 4  
Since 1 July heating degree days 0  
Cooling Degree Days 8 13  
Month to date cooling degree days 234  
Year to date cooling degree days 1118  
Since 1 June cooling degree days 956  
Growing Degree Days 22 (Base 50)    
Moisture  
Dew Point 68 °F    
Average Humidity 93    
Maximum Humidity 100    
Minimum Humidity 69    
Precipitation  
Precipitation 0.70 in 0.10 in 2.02 in (1894)
Month to date precipitation 2.06  
Year to date precipitation 32.39  
Snow  
Snow 0.00 in 0.00 in - ()
Month to date snowfall 0.0  
Since 1 June snowfall 0.0  
Since 1 July snowfall 0.0  
Snow Depth -    
Sea Level Pressure  
Sea Level Pressure 29.99 in    
Wind  
Wind Speed 1 mph (West)    
Max Wind Speed 9 mph    
Max Gust Speed -    
Visibility 7 miles    
Events Rain    
T = Trace of Precipitation, MM = Missing Value Source: NWS Daily Summary

Daily Weather History Graph

Daily Weather History Graph

Search for Another Location

Airport:

Trip Planner

Search our weather history database for the weather conditions in past years. The results will help you decide how hot, cold, wet, or windy it might be!

Date:

Astronomy

Aug. 18, 2014 Rise Set
Actual Time 6:57 AM EDT 8:20 PM EDT
Civil Twilight 6:30 AM EDT 8:47 PM EDT
Nautical Twilight 5:58 AM EDT 9:18 PM EDT
Astronomical Twilight 5:25 AM EDT 9:52 PM EDT
Moon 1:06 AM EDT (8/18) 3:19 PM EDT (8/18)
Length of Visible Light 14h 16m
Length of Day
13h 23m
Last Quarter, 38% of the Moon is Illuminated
Aug 18
Last Quarter
Aug 25
New
Sep 2
First Quarter
Sep 8
Full
Sep 15
Last Quarter

Hourly Weather History & Observations

Time (EDT) Temp. Heat Index Dew Point Humidity Pressure Visibility Wind Dir Wind Speed Gust Speed Precip Events Conditions
12:15 AM 67.1 °F - 66.6 °F 98% 30.04 in 5.0 mi Calm Calm - N/A   Scattered Clouds
12:35 AM 67.3 °F - 66.9 °F 99% 30.04 in 4.0 mi Calm Calm - N/A   Mostly Cloudy
12:55 AM 67.3 °F - 67.1 °F 99% 30.04 in 4.0 mi Calm Calm - N/A   Mostly Cloudy
1:15 AM 67.1 °F - 66.6 °F 98% 30.03 in 5.0 mi Calm Calm - N/A   Scattered Clouds
1:35 AM 67.1 °F - 66.4 °F 98% 30.02 in 7.0 mi Calm Calm - N/A   Scattered Clouds
1:55 AM 66.2 °F - 65.7 °F 98% 30.01 in 4.0 mi Calm Calm - N/A   Scattered Clouds
2:15 AM 66.0 °F - 65.7 °F 99% 30.01 in 3.0 mi Calm Calm - N/A   Mostly Cloudy
2:35 AM 66.2 °F - 65.8 °F 99% 30.01 in 3.0 mi Calm Calm - N/A   Mostly Cloudy
2:55 AM 66.2 °F - 66.2 °F 100% 30.00 in 3.0 mi Calm Calm - N/A   Overcast
3:15 AM 66.4 °F - 66.2 °F 99% 29.99 in 4.0 mi Calm Calm - N/A   Mostly Cloudy
3:35 AM 66.4 °F - 66.2 °F 99% 29.99 in 4.0 mi Calm Calm - N/A   Overcast
3:55 AM 66.7 °F - 66.7 °F 100% 30.00 in 1.2 mi Calm Calm - 0.17 in Rain Light Rain
4:10 AM 67.1 °F - 67.1 °F 100% 29.99 in 2.5 mi Calm Calm - 0.01 in Rain Light Rain
4:35 AM 67.1 °F - 66.9 °F 99% 29.99 in 3.0 mi Calm Calm - 0.19 in Rain Light Rain
4:55 AM 67.1 °F - 67.1 °F 100% 30.00 in 4.0 mi NNW 4.6 mph - 0.19 in   Overcast
5:15 AM 67.5 °F - 67.3 °F 99% 30.00 in 5.0 mi Calm Calm - N/A   Overcast
5:35 AM 67.3 °F - 67.1 °F 99% 30.01 in 4.0 mi Calm Calm - N/A   Overcast
5:55 AM 67.5 °F - 67.3 °F 99% 30.00 in 4.0 mi Calm Calm - N/A   Overcast
6:15 AM 67.6 °F - 67.5 °F 99% 30.00 in 3.0 mi Calm Calm - N/A   Overcast
6:35 AM 67.6 °F - 67.5 °F 99% 30.00 in 4.0 mi Calm Calm - N/A   Overcast
6:55 AM 68.0 °F - 67.5 °F 98% 30.00 in 5.0 mi Calm Calm - N/A   Overcast
7:15 AM 68.0 °F - 67.6 °F 99% 30.01 in 5.0 mi Calm Calm - N/A   Overcast
7:35 AM 68.0 °F - 67.6 °F 99% 30.01 in 2.5 mi Calm Calm - N/A Rain Light Rain
7:55 AM 68.2 °F - 68.0 °F 99% 30.01 in 3.0 mi Calm Calm - N/A Rain Light Rain
8:15 AM 68.9 °F - 68.2 °F 98% 30.01 in 5.0 mi Calm Calm - N/A   Overcast
8:35 AM 69.3 °F - 68.5 °F 98% 30.02 in 5.0 mi Calm Calm - N/A   Overcast
8:55 AM 69.8 °F - 68.9 °F 97% 30.02 in 5.0 mi Calm Calm - N/A   Overcast
9:15 AM 69.4 °F - 68.9 °F 98% 30.03 in 5.0 mi Calm Calm - 0.01 in   Overcast
9:35 AM 69.4 °F - 68.7 °F 98% 30.03 in 5.0 mi Calm Calm - 0.01 in Rain Light Rain
10:00 AM 69.4 °F - 68.9 °F 98% 30.04 in 3.0 mi Calm Calm - N/A Rain Rain
10:15 AM 69.8 °F - 69.1 °F 98% 30.05 in 3.0 mi WSW 3.5 mph - 0.02 in Rain Rain
10:35 AM 69.8 °F - 68.4 °F 95% 30.05 in 10.0 mi WSW 5.8 mph - 0.04 in Rain Light Rain
10:55 AM 69.8 °F - 68.2 °F 95% 30.05 in 7.0 mi Calm Calm - 0.06 in Rain Light Rain
11:15 AM 69.3 °F - 68.2 °F 96% 30.06 in 7.0 mi Calm Calm - 0.02 in Rain Light Rain
11:35 AM 69.6 °F - 68.0 °F 95% 30.05 in 10.0 mi Calm Calm - 0.03 in Rain Light Rain
11:55 AM 69.6 °F - 68.4 °F 96% 30.05 in 7.0 mi Calm Calm - 0.05 in Rain Light Rain
12:15 PM 70.0 °F - 68.0 °F 93% 30.03 in 10.0 mi Calm Calm - N/A   Overcast
12:35 PM 70.3 °F - 68.2 °F 93% 30.02 in 10.0 mi Calm Calm - N/A   Overcast
12:55 PM 71.6 °F - 68.5 °F 90% 30.01 in 10.0 mi WNW 4.6 mph - N/A   Mostly Cloudy
1:15 PM 73.6 °F - 67.6 °F 82% 30.00 in 10.0 mi Calm Calm - N/A   Scattered Clouds
1:35 PM 73.2 °F - 65.7 °F 77% 29.99 in 10.0 mi Calm Calm - N/A   Mostly Cloudy
1:55 PM 73.6 °F - 66.4 °F 78% 29.98 in 10.0 mi Calm Calm - N/A   Mostly Cloudy
2:15 PM 75.2 °F - 67.3 °F 76% 29.97 in 10.0 mi Calm Calm - N/A   Scattered Clouds
2:35 PM 75.9 °F - 68.0 °F 76% 29.96 in 10.0 mi Calm Calm - N/A   Clear
2:55 PM 76.5 °F - 66.9 °F 72% 29.96 in 10.0 mi Calm Calm - N/A   Clear
3:15 PM 76.3 °F - 67.6 °F 74% 29.95 in 10.0 mi Calm Calm - N/A   Clear
3:55 PM 79.9 °F - 69.1 °F 69% 29.94 in 10.0 mi WSW 3.5 mph - N/A   Scattered Clouds
4:15 PM 80.8 °F 84.1 °F 69.8 °F 69% 29.93 in 10.0 mi SW 5.8 mph - N/A   Scattered Clouds
4:35 PM 80.6 °F 83.9 °F 70.0 °F 70% 29.92 in 10.0 mi West 8.1 mph - N/A   Scattered Clouds
4:55 PM 79.3 °F - 69.8 °F 72% 29.92 in 10.0 mi WSW 5.8 mph - N/A   Mostly Cloudy
5:15 PM 79.2 °F - 70.5 °F 75% 29.92 in 10.0 mi WSW 4.6 mph - N/A   Overcast
5:35 PM 79.0 °F - 71.2 °F 77% 29.91 in 10.0 mi WSW 3.5 mph - N/A   Mostly Cloudy
5:55 PM 78.1 °F - 70.3 °F 77% 29.93 in 10.0 mi WSW 8.1 mph - N/A   Mostly Cloudy
6:15 PM 74.3 °F - 71.6 °F 91% 29.93 in 7.0 mi WNW 4.6 mph - 0.03 in Rain Light Rain
6:35 PM 73.4 °F - 71.4 °F 93% 29.93 in 2.0 mi North 3.5 mph - 0.11 in Rain Heavy Rain
6:55 PM 72.7 °F - 68.7 °F 87% 29.93 in 4.0 mi North 9.2 mph - 0.21 in Rain Heavy Rain
7:15 PM 70.9 °F - 68.5 °F 92% 29.94 in 10.0 mi East 3.5 mph - N/A Rain Light Rain
7:35 PM 70.2 °F - 69.3 °F 97% 29.95 in 10.0 mi Calm Calm - 0.01 in   Overcast
7:55 PM 69.8 °F - 68.5 °F 96% 29.95 in 10.0 mi East 4.6 mph - 0.01 in   Overcast
8:15 PM 69.4 °F - 68.4 °F 96% 29.94 in 10.0 mi Calm Calm - N/A   Overcast
8:35 PM 69.1 °F - 68.4 °F 98% 29.93 in 10.0 mi NE 3.5 mph - N/A   Light Drizzle
8:55 PM 68.2 °F - 67.3 °F 97% 29.94 in 10.0 mi Calm Calm - N/A   Scattered Clouds
9:15 PM 67.5 °F - 66.4 °F 96% 29.94 in 10.0 mi Calm Calm - N/A   Clear
9:35 PM 66.7 °F - 66.0 °F 98% 29.95 in 10.0 mi Calm Calm - N/A   Clear
9:55 PM 66.4 °F - 65.8 °F 98% 29.95 in 10.0 mi Calm Calm - N/A   Scattered Clouds
10:15 PM 66.6 °F - 65.8 °F 98% 29.95 in 10.0 mi Calm Calm - N/A   Scattered Clouds
10:35 PM 66.2 °F - 65.7 °F 98% 29.96 in 10.0 mi Calm Calm - N/A   Scattered Clouds
10:55 PM 65.3 °F - 65.1 °F 99% 29.96 in 10.0 mi Calm Calm - N/A   Scattered Clouds
11:15 PM 65.3 °F - 65.3 °F 100% 29.96 in 7.0 mi Calm Calm - N/A   Mostly Cloudy
11:35 PM 65.3 °F - 65.3 °F 100% 29.96 in 10.0 mi Calm Calm - N/A   Overcast